Lamoni, IA

12:17 AM CDT on March 27, 2017 (GMT -0500)
Lamoni Municipal

Weather History for KLWD - October, 2011

Change the Weather History Date:

Friday, October 28, 2011

  Actual Average Record
Temperature  
Mean Temperature 45 °F 48 °F  
Max Temperature 58 °F 59 °F 80 °F (2016)
Min Temperature 32 °F 39 °F 21 °F (1967)
Degree Days  
Heating Degree Days 20 17  
Month to date heating degree days 256 332  
Since 1 July heating degree days 419 432  
Cooling Degree Days 0 0  
Month to date cooling degree days 23 11  
Year to date cooling degree days 1144 944  
Moisture  
Dew Point 22 °F    
Average Humidity 43    
Maximum Humidity 64    
Minimum Humidity 22    
Precipitation  
Precipitation 0.00 in 0.10 in 1.22 in (1982)
Month to date precipitation 0.07 2.64  
Year to date precipitation 29.07  
Sea Level Pressure  
Sea Level Pressure 30.17 in    
Wind  
Wind Speed 10 mph (West)    
Max Wind Speed 23 mph    
Max Gust Speed 30 mph    
Visibility 10 miles    
Events Rain    
T = Trace of Precipitation, MM = Missing Value Source: NWS Daily Summary

Daily Weather History Graph

Daily Weather History Graph

Search for Another Location

Airport or City:

Trip Planner

Search our weather history database for the weather conditions in past years. The results will help you decide how hot, cold, wet, or windy it might be!

Date:

Astronomy

Oct. 28, 2011 Rise Set
Actual Time 7:40 AM CDT 6:17 PM CDT
Civil Twilight 7:12 AM CDT 6:45 PM CDT
Nautical Twilight 6:40 AM CDT 7:17 PM CDT
Astronomical Twilight 6:08 AM CDT 7:49 PM CDT
Moon 9:58 AM CDT (10/28) 7:40 PM CDT (10/28)
Length of Visible Light 11h 32m
Length of Day
10h 36m
Waxing Crescent, 5% of the Moon is Illuminated
Oct 28
Waxing Crescent
Nov 2
First Quarter
Nov 10
Full
Nov 18
Last Quarter
Nov 25
New

Hourly Weather History & Observations

Time (CDT) Temp. Windchill Dew Point Humidity Pressure Visibility Wind Dir Wind Speed Gust Speed Precip Events Conditions
12:53 AM 37.9 °F 33.5 °F 25.0 °F 60% 30.18 in 10.0 mi SW 5.8 mph - N/A   Clear
1:53 AM 39.9 °F 36.7 °F 24.1 °F 53% 30.18 in 10.0 mi WSW 4.6 mph - N/A   Partly Cloudy
3:53 AM 36.0 °F 32.1 °F 24.1 °F 62% 30.18 in 10.0 mi SW 4.6 mph - N/A   Clear
4:53 AM 35.1 °F 29.3 °F 23.0 °F 61% 30.18 in 10.0 mi WSW 6.9 mph - N/A   Clear
5:53 AM 35.1 °F 28.6 °F 23.0 °F 61% 30.18 in 10.0 mi SW 8.1 mph - N/A   Clear
6:53 AM 35.1 °F 27.9 °F 23.0 °F 61% 30.18 in 10.0 mi WSW 9.2 mph - N/A   Clear
7:53 AM 34.0 °F 26.6 °F 23.0 °F 64% 30.19 in 10.0 mi SW 9.2 mph - N/A   Clear
8:53 AM 39.9 °F 33.9 °F 25.0 °F 55% 30.20 in 10.0 mi WSW 9.2 mph - 0.00 in   Clear
9:53 AM 46.0 °F 40.6 °F 26.1 °F 46% 30.18 in 10.0 mi WSW 11.5 mph - N/A   Clear
10:53 AM 52.0 °F - 27.0 °F 38% 30.17 in 10.0 mi SSW 10.4 mph - N/A   Clear
11:53 AM 55.0 °F - 27.0 °F 34% 30.16 in 10.0 mi West 13.8 mph - N/A   Clear
12:53 PM 57.0 °F - 27.0 °F 32% 30.14 in 10.0 mi WNW 20.7 mph 28.8 mph 0.00 in Rain Light Rain
1:53 PM 57.0 °F - 26.1 °F 30% 30.12 in 10.0 mi NW 17.3 mph 25.3 mph 0.00 in Rain Light Rain
2:53 PM 57.9 °F - 24.1 °F 27% 30.12 in 10.0 mi NW 17.3 mph 26.5 mph 0.00 in   Clear
3:53 PM 57.0 °F - 21.0 °F 25% 30.12 in 10.0 mi NW 18.4 mph 28.8 mph N/A   Clear
4:53 PM 55.0 °F - 17.1 °F 23% 30.12 in 10.0 mi NW 17.3 mph 24.2 mph N/A   Clear
5:53 PM 52.0 °F - 17.1 °F 25% 30.14 in 10.0 mi NW 13.8 mph - N/A   Clear
6:53 PM 44.1 °F 40.1 °F 17.1 °F 34% 30.17 in 10.0 mi WNW 6.9 mph - N/A   Clear
7:53 PM 39.9 °F 35.1 °F 19.0 °F 43% 30.19 in 10.0 mi WNW 6.9 mph - N/A   Clear
8:53 PM 39.0 °F 32.8 °F 19.0 °F 45% 30.19 in 10.0 mi West 9.2 mph - N/A   Clear
9:53 PM 37.9 °F 32.1 °F 19.9 °F 48% 30.18 in 10.0 mi West 8.1 mph - N/A   Clear
10:53 PM 37.0 °F 31.6 °F 19.0 °F 48% 30.18 in 10.0 mi West 6.9 mph - N/A   Clear
11:53 PM 37.9 °F 32.7 °F 19.0 °F 47% 30.15 in 10.0 mi WSW 6.9 mph - N/A   Clear